This demonstration page uses our WeatherBlox Daily Observations layout. Learn more.

Left ArrowRight Arrow

38.89511, -77.03637

Hourly Observations for October 3, 2022

Temp ( °F °C ) Dew Point ( °F °C ) Humidity (%) Winds ( mph kmh ) Pressure ( in mb ) Visibility ( mi km ) Precip ( " mm )
12:06 am 00:06 Cloudy with Light Rain 54 12.2 50 10 86 86 N 15 24 30.15 1021 6 10 0.01 0.25
12:52 am 00:52 Cloudy with Light Rain 53 11.7 49 9.4 86 86 N 16 26 30.15 1021 6 10 0.02 0.51
1:52 am 01:52 Cloudy with Light Rain 53 11.7 48 8.9 83 83 NNE 20 31 30.15 1021 10 16 0.04 1.02
2:52 am 02:52 Cloudy with Light Rain 50 10 43 6.1 77 77 NNE 20 31 30.15 1021 10 16 0.04 1.02
3:52 am 03:52 Cloudy with Light Rain 49 9.4 44 6.7 83 83 N 16 26 30.16 1021 10 16 0.04 1.02
4:52 am 04:52 Cloudy with Light Rain 49 9.4 44 6.7 83 83 NNE 15 24 30.16 1021 10 16 0.02 0.51
5:52 am 05:52 Cloudy 49 9.4 43 6.1 80 80 N 15 24 30.17 1022 10 16 0.01 0.13
6:52 am 06:52 Cloudy with Light Rain 49 9.4 42 5.6 77 77 N 16 26 30.19 1022 10 16 0.01 0.13
7:52 am 07:52 Cloudy with Drizzle 49 9.4 42 5.6 77 77 N 15 24 30.19 1023 10 16 0.01 0.13
8:52 am 08:52 Cloudy 50 10 41 5 71 71 N 17 28 30.21 1023 10 16 0.01 0.13
9:52 am 09:52 Cloudy 51 10.6 41 5 68 68 N 20 31 30.22 1023 10 16 0.01 0.13
10:52 am 10:52 Cloudy with Light Rain 51 10.6 42 5.6 71 71 N 18 30 30.22 1024 10 16 0.01 0.25
11:52 am 11:52 Cloudy 53 11.7 42 5.6 66 66 N 21 33 30.22 1023 10 16 0.01 0.13
12:52 pm 12:52 Cloudy 55 12.8 43 6.1 64 64 NNE 21 33 30.22 1023 10 16 0.00 0.00
1:52 pm 13:52 Cloudy 56 13.3 43 6.1 62 62 NNE 18 30 30.21 1023 10 16 0.01 0.13
2:52 pm 14:52 Cloudy with Light Rain 53 11.7 44 6.7 71 71 N 17 28 30.20 1023 10 16 0.01 0.13
3:52 pm 15:52 Cloudy with Light Rain 51 10.6 44 6.7 77 77 N 18 30 30.20 1023 10 16 0.01 0.13
4:52 pm 16:52 Cloudy with Light Rain 50 10 44 6.7 80 80 N 15 24 30.20 1023 10 16 0.02 0.51
5:52 pm 17:52 Cloudy with Rain 50 10 44 6.7 80 80 N 15 24 30.19 1022 7 11 0.02 0.51
6:52 pm 18:52 Cloudy with Light Rain 50 10 46 7.8 86 86 N 12 19 30.20 1023 10 16 0.07 1.78
7:52 pm 19:52 Cloudy with Rain 49 9.4 44 6.7 83 83 N 15 24 30.20 1023 8 13 0.07 1.78
8:52 pm 20:52 Cloudy with Light Rain 49 9.4 45 7.2 86 86 N 12 19 30.21 1023 10 16 0.08 2.03
9:52 pm 21:52 Cloudy with Light Rain 49 9.4 45 7.2 86 86 N 10 17 30.20 1023 10 16 0.01 0.13
10:52 pm 22:52 Cloudy 50 10 45 7.2 83 83 N 12 19 30.18 1022 10 16 0.01 0.25
11:52 pm 23:52 Cloudy with Light Rain 50 10 46 7.8 86 86 N 12 19 30.17 1022 10 16 0.01 0.13

Powered by AerisWeather